• Em Portugal
  • Lista de países
  • Para 7 dias
  • Temperatura da água
  • Mapas de satélite
  • Mapa do tempo
  • Widgets de tempo
  • user-avatar
    Iniciar Sessão

    Previsão horária em Gabrovo

    Hoje, 25 Setembro, Terça-feira

    Tempo Temperatura Precipitação Vento Pressão Humidade
    00:00 +10°C° 0 mm 6 m/s 704 mmHg 54%
    01:00 +9°C° 0 mm 6 m/s 705 mmHg 54%
    02:00 +9°C° 0 mm 6 m/s 705 mmHg 53%
    03:00 +8°C° 0 mm 5 m/s 705 mmHg 53%
    04:00 +8°C° 0 mm 5 m/s 706 mmHg 53%
    05:00 +7°C° 0 mm 4 m/s 706 mmHg 54%
    06:00 +8°C° 0 mm 4 m/s 707 mmHg 52%
    07:00 +8°C° 0 mm 4 m/s 707 mmHg 50%
    08:00 +8°C° 0 mm 4 m/s 708 mmHg 48%
    09:00 +11°C° 0 mm 4 m/s 708 mmHg 42%
    10:00 +12°C° 0 mm 5 m/s 708 mmHg 37%
    11:00 +13°C° 0 mm 5 m/s 709 mmHg 31%
    12:00 +14°C° 0 mm 5 m/s 709 mmHg 29%
    13:00 +15°C° 0 mm 5 m/s 708 mmHg 26%
    14:00 +15°C° 0 mm 5 m/s 708 mmHg 24%
    15:00 +15°C° 0 mm 5 m/s 708 mmHg 25%
    16:00 +14°C° 0 mm 5 m/s 708 mmHg 25%
    17:00 +14°C° 0 mm 5 m/s 708 mmHg 26%
    18:00 +12°C° 0 mm 4 m/s 708 mmHg 29%
    19:00 +10°C° 0 mm 3 m/s 709 mmHg 33%
    20:00 +8°C° 0 mm 3 m/s 709 mmHg 37%
    21:00 +8°C° 0 mm 2 m/s 710 mmHg 40%
    22:00 +7°C° 0 mm 2 m/s 710 mmHg 42%
    23:00 +6°C° 0 mm 2 m/s 710 mmHg 45%

    Amanhã, 26 Setembro, Quarta-feira

    Tempo Temperatura Precipitação Vento Pressão Humidade
    00:00 +6°C° 0 mm 2 m/s 711 mmHg 46%
    01:00 +6°C° 0 mm 2 m/s 711 mmHg 47%
    02:00 +5°C° 0 mm 2 m/s 711 mmHg 49%
    03:00 +5°C° 0 mm 2 m/s 711 mmHg 51%
    04:00 +5°C° 0 mm 2 m/s 711 mmHg 53%
    05:00 +4°C° 0 mm 2 m/s 711 mmHg 55%
    06:00 +5°C° 0 mm 2 m/s 712 mmHg 53%
    07:00 +6°C° 0 mm 2 m/s 712 mmHg 50%
    08:00 +7°C° 0 mm 2 m/s 713 mmHg 47%
    09:00 +9°C° 0 mm 3 m/s 713 mmHg 44%
    10:00 +10°C° 0 mm 3 m/s 713 mmHg 40%
    11:00 +11°C° 0 mm 4 m/s 713 mmHg 36%
    12:00 +12°C° 0 mm 4 m/s 713 mmHg 35%
    13:00 +12°C° 0 mm 5 m/s 713 mmHg 34%
    14:00 +12°C° 0 mm 5 m/s 712 mmHg 33%
    15:00 +12°C° 0 mm 5 m/s 712 mmHg 34%
    16:00 +12°C° 0 mm 4 m/s 712 mmHg 35%
    17:00 +11°C° 0 mm 4 m/s 711 mmHg 36%
    18:00 +8°C° 0 mm 4 m/s 712 mmHg 40%
    19:00 +8°C° 0 mm 3 m/s 712 mmHg 44%
    20:00 +6°C° 0 mm 2 m/s 712 mmHg 48%
    21:00 +6°C° 0 mm 2 m/s 712 mmHg 49%
    22:00 +5°C° 0 mm 2 m/s 712 mmHg 51%
    23:00 +4°C° 0 mm 2 m/s 712 mmHg 52%

    Depois de amanhã, 27 Setembro, Quinta-feira

    Tempo Temperatura Precipitação Vento Pressão Humidade
    00:00 +4°C° 0 mm 2 m/s 712 mmHg 53%
    01:00 +4°C° 0 mm 2 m/s 712 mmHg 55%
    02:00 +3°C° 0 mm 2 m/s 712 mmHg 56%
    03:00 +3°C° 0 mm 2 m/s 711 mmHg 57%
    04:00 +2°C° 0 mm 2 m/s 711 mmHg 58%
    05:00 +2°C° 0 mm 2 m/s 711 mmHg 59%
    06:00 +3°C° 0 mm 2 m/s 711 mmHg 54%
    07:00 +5°C° 0 mm 2 m/s 711 mmHg 50%
    08:00 +6°C° 0 mm 2 m/s 711 mmHg 45%
    09:00 +8°C° 0 mm 3 m/s 711 mmHg 40%
    10:00 +10°C° 0 mm 3 m/s 711 mmHg 35%
    11:00 +11°C° 0 mm 4 m/s 711 mmHg 30%
    12:00 +12°C° 0 mm 4 m/s 711 mmHg 28%
    13:00 +13°C° 0 mm 4 m/s 710 mmHg 27%
    14:00 +14°C° 0 mm 4 m/s 710 mmHg 25%
    15:00 +14°C° 0 mm 4 m/s 709 mmHg 26%
    16:00 +13°C° 0 mm 4 m/s 709 mmHg 27%
    17:00 +13°C° 0 mm 4 m/s 709 mmHg 28%
    18:00 +11°C° 0 mm 3 m/s 708 mmHg 32%
    19:00 +9°C° 0 mm 2 m/s 708 mmHg 36%
    20:00 +7°C° 0 mm 2 m/s 708 mmHg 41%
    21:00 +6°C° 0 mm 2 m/s 708 mmHg 41%
    22:00 +6°C° 0 mm 2 m/s 708 mmHg 42%
    23:00 +6°C° 0 mm 2 m/s 708 mmHg 42%

    28 Setembro, Sexta-feira

    Tempo Temperatura Precipitação Vento Pressão Humidade
    00:00 +5°C° 0 mm 2 m/s 707 mmHg 42%
    01:00 +5°C° 0 mm 2 m/s 707 mmHg 42%
    02:00 +5°C° 0 mm 2 m/s 707 mmHg 42%
    03:00 +5°C° 0 mm 2 m/s 706 mmHg 41%
    04:00 +5°C° 0 mm 2 m/s 706 mmHg 41%
    05:00 +5°C° 0 mm 2 m/s 706 mmHg 40%
    06:00 +6°C° 0 mm 2 m/s 706 mmHg 38%
    07:00 +7°C° 0 mm 2 m/s 706 mmHg 36%
    08:00 +10°C° 0 mm 1 m/s 707 mmHg 35%
    09:00 +12°C° 0 mm 1 m/s 707 mmHg 35%
    10:00 +13°C° 0 mm 2 m/s 707 mmHg 35%
    11:00 +15°C° 0 mm 2 m/s 707 mmHg 35%
    12:00 +16°C° 0 mm 2 m/s 706 mmHg 35%
    13:00 +17°C° 0 mm 2 m/s 706 mmHg 35%
    14:00 +18°C° 0 mm 2 m/s 705 mmHg 35%
    15:00 +18°C° 0 mm 2 m/s 705 mmHg 36%
    16:00 +18°C° 0 mm 2 m/s 704 mmHg 38%
    17:00 +18°C° 0 mm 2 m/s 704 mmHg 40%
    18:00 +16°C° 0 mm 2 m/s 704 mmHg 45%
    19:00 +14°C° 0 mm 1 m/s 703 mmHg 51%
    20:00 +12°C° 0 mm 1 m/s 703 mmHg 56%
    21:00 +12°C° 0 mm 1 m/s 703 mmHg 59%
    22:00 +11°C° 0 mm 1 m/s 703 mmHg 61%
    23:00 +11°C° 0 mm 1 m/s 703 mmHg 64%

    29 Setembro, Sábado

    Tempo Temperatura Precipitação Vento Pressão Humidade
    00:00 +11°C° 0.1 mm 1 m/s 703 mmHg 65%
    01:00 +11°C° 0.1 mm 1 m/s 702 mmHg 67%
    02:00 +10°C° 0.1 mm 1 m/s 702 mmHg 68%
    03:00 +10°C° 0 mm 1 m/s 702 mmHg 70%
    04:00 +10°C° 0 mm 1 m/s 702 mmHg 71%
    05:00 +9°C° 0 mm 1 m/s 701 mmHg 72%
    06:00 +11°C° 0 mm 1 m/s 702 mmHg 68%
    07:00 +12°C° 0 mm 1 m/s 702 mmHg 64%
    08:00 +13°C° 0 mm 1 m/s 702 mmHg 60%
    09:00 +14°C° 0 mm 1 m/s 702 mmHg 55%
    10:00 +16°C° 0 mm 1 m/s 703 mmHg 50%
    11:00 +19°C° 0 mm 1 m/s 703 mmHg 45%
    12:00 +20°C° 0 mm 1 m/s 703 mmHg 42%
    13:00 +20°C° 0 mm 2 m/s 703 mmHg 40%
    14:00 +20°C° 0 mm 2 m/s 702 mmHg 38%
    15:00 +20°C° 0 mm 2 m/s 702 mmHg 39%
    16:00 +21°C° 0 mm 1 m/s 702 mmHg 40%
    17:00 +20°C° 0 mm 1 m/s 702 mmHg 41%
    18:00 +19°C° 0 mm 1 m/s 702 mmHg 44%
    19:00 +16°C° 0 mm 1 m/s 703 mmHg 47%
    20:00 +14°C° 0 mm 1 m/s 703 mmHg 50%
    21:00 +14°C° 0 mm 1 m/s 703 mmHg 51%
    22:00 +13°C° 0 mm 1 m/s 703 mmHg 51%
    23:00 +13°C° 0 mm 1 m/s 703 mmHg 52%

    30 Setembro, Domingo

    Tempo Temperatura Precipitação Vento Pressão Humidade
    00:00 +12°C° 0 mm 1 m/s 703 mmHg 53%
    01:00 +12°C° 0 mm 1 m/s 704 mmHg 55%
    02:00 +11°C° 0 mm 1 m/s 704 mmHg 56%
    03:00 +11°C° 0 mm 1 m/s 704 mmHg 58%
    04:00 +10°C° 0 mm 1 m/s 704 mmHg 59%
    05:00 +10°C° 0 mm 1 m/s 704 mmHg 60%
    06:00 +11°C° 0 mm 1 m/s 705 mmHg 58%
    07:00 +12°C° 0 mm 1 m/s 705 mmHg 56%
    08:00 +13°C° 0 mm 1 m/s 706 mmHg 54%
    09:00 +15°C° 0 mm 1 m/s 706 mmHg 50%
    10:00 +18°C° 0 mm 1 m/s 706 mmHg 46%
    11:00 +20°C° 0 mm 1 m/s 707 mmHg 42%
    12:00 +20°C° 0 mm 2 m/s 706 mmHg 40%
    13:00 +20°C° 0 mm 2 m/s 706 mmHg 39%
    14:00 +21°C° 0 mm 2 m/s 706 mmHg 37%
    15:00 +20°C° 0 mm 2 m/s 706 mmHg 40%
    16:00 +20°C° 0 mm 2 m/s 706 mmHg 42%
    17:00 +19°C° 0 mm 3 m/s 705 mmHg 44%
    18:00 +18°C° 0 mm 2 m/s 705 mmHg 51%
    19:00 +16°C° 0 mm 2 m/s 705 mmHg 57%
    20:00 +14°C° 0 mm 2 m/s 705 mmHg 64%
    21:00 +14°C° 0 mm 1 m/s 705 mmHg 67%
    22:00 +13°C° 0 mm 1 m/s 705 mmHg 71%
    23:00 +12°C° 0 mm 1 m/s 705 mmHg 74%
    Mostrar mais